This is the latest recevied weather packets stored in our database for station/object OK5TVR-5. If no packets are shown the sender has not sent any weather packets the latest 10 day(s).
| Time | Temp. | Humidity | Pressure | Rain* | Wind** | Luminosity | Snow |
|---|---|---|---|---|---|---|---|
| 1788326540 | 10.56° C | 89% | 1016 hPa | 0 mm | - | 12 W/m² | - |
| 1788325646 | 10.56° C | 84% | 1015.9 hPa | 0 mm | - | 10 W/m² | - |
| 1788325645 | 10.56° C | 84% | 1015.9 hPa | 0 mm | - | 10 W/m² | - |
| 1788325641 | 10.56° C | 84% | 1015.9 hPa | 0 mm | - | 10 W/m² | - |
| 1788325640 | 10.56° C | 84% | 1015.9 hPa | 0 mm | - | 10 W/m² | - |
| 1788324740 | 10° C | 85% | 1015.9 hPa | 0 mm | - | 7 W/m² | - |
| 1788323840 | 10° C | 85% | 1015.7 hPa | 0 mm | - | 3 W/m² | - |
| 1788322940 | 10° C | 85% | 1015.8 hPa | 0 mm | - | 1 W/m² | - |
| 1788322040 | 10.56° C | 84% | 1015.8 hPa | 0 mm | - | 0 W/m² | - |
| 1788321140 | 10.56° C | 84% | 1015.6 hPa | 0 mm | - | 0 W/m² | - |
| 1788320240 | 10.56° C | 83% | 1015.5 hPa | 0 mm | - | 0 W/m² | - |
| 1788319340 | 10.56° C | 84% | 1015.5 hPa | 0 mm | - | 0 W/m² | - |
| 1788318440 | 11.11° C | 83% | 1015.5 hPa | 0 mm | - | 0 W/m² | - |
| 1788317540 | 11.11° C | 83% | 1015.6 hPa | 0 mm | - | 0 W/m² | - |
| 1788316640 | 11.11° C | 83% | 1015.9 hPa | 0 mm | - | 0 W/m² | - |
| 1788315740 | 11.11° C | 82% | 1015.8 hPa | 0 mm | - | 0 W/m² | - |
| 1788314840 | 11.67° C | 83% | 1015.8 hPa | 0 mm | - | 0 W/m² | - |
| 1788313940 | 11.67° C | 83% | 1015.6 hPa | 0 mm | - | 0 W/m² | - |
| 1788313040 | 11.67° C | 84% | 1015.6 hPa | 0 mm | - | 0 W/m² | - |
| 1788312141 | 11.67° C | 83% | 1015.6 hPa | 0 mm | - | 0 W/m² | - |
| 1788311240 | 11.11° C | 85% | 1015.5 hPa | 0 mm | - | 0 W/m² | - |
| 1788310340 | 11.67° C | 82% | 1015.4 hPa | 0 mm | - | 0 W/m² | - |
| 1788309440 | 11.67° C | 82% | 1015.5 hPa | 0 mm | - | 0 W/m² | - |
| 1788308540 | 11.67° C | 81% | 1015.6 hPa | 0 mm | - | 0 W/m² | - |
| 1788307640 | 11.67° C | 81% | 1015.5 hPa | 0 mm | - | 0 W/m² | - |
* Rain latest hour (hover to see other rain measurements)
** Current wind speed in m/s (hover to see current wind gust speed)